Wind_Speed
91 90 90 90 90 89 87 86 84 82 80 79 77 76 74 71 71 71 70 69 62 58 60 58 56 56 53 53 53 54 52 47 46 46 44 42 41 40 38 37 36 34 33 33 33 33 33 34 33 33 32 31 29 28 27 26 24 24 24 24 24 26 26 24 24 25 24 23 23 24 24 22 21 20 19 18 17 16 15 13 12 10 10 9 9 9 8 7
93 91 91 91 91 90 88 87 86 84 82 79 78 78 76 74 72 72 71 71 66 61 61 58 58 58 57 58 57 56 54 51 50 49 46 45 44 43 41 39 38 36 35 34 33 33 34 34 34 33 32 31 29 28 29 29 26 26 25 22 22 26 28 27 26 27 27 25 25 26 25 24 24 22 20 19 18 17 16 15 14 12 11 10 10 9 8 8
94 92 91 91 91 91 90 89 87 85 84 81 78 78 78 76 74 74 73 73 70 66 64 61 61 60 59 61 61 59 56 53 52 50 47 46 46 45 43 41 40 38 37 36 35 34 34 34 35 34 32 32 30 27 30 32 29 27 26 24 23 27 30 28 28 29 29 28 27 27 27 26 26 24 22 21 19 17 17 18 16 14 12 11 10 9 9 9
94 93 92 92 92 92 91 90 89 87 86 83 79 77 79 78 76 75 75 75 74 71 67 64 62 62 63 63 64 62 59 56 54 49 46 47 47 46 44 43 42 40 40 38 36 35 34 35 35 34 33 31 30 26 28 31 30 29 27 26 26 29 31 29 29 30 31 31 29 29 28 27 27 26 25 23 21 20 21 21 18 15 12 12 11 10 10 10
93 93 93 93 93 92 91 91 91 89 87 86 82 77 77 79 78 76 77 77 76 75 73 68 62 64 67 65 64 64 63 60 55 49 48 49 48 47 46 45 44 42 41 39 37 35 35 35 35 34 33 31 29 27 27 28 27 28 28 28 27 28 30 29 28 30 32 33 32 31 29 30 31 29 28 25 23 25 26 22 18 15 14 13 12 12 12 12
92 92 91 93 94 92 91 91 91 91 89 87 85 80 75 76 79 78 77 77 78 77 77 74 65 64 68 66 61 62 63 62 57 52 52 52 49 48 48 47 46 44 43 41 38 36 35 35 34 34 34 33 30 29 30 30 27 27 27 28 29 28 29 30 28 29 33 35 34 34 33 33 33 31 30 27 27 30 27 22 20 17 15 14 13 14 14 14
91 90 89 93 95 91 92 91 91 91 90 88 86 83 77 74 77 80 79 77 78 78 78 78 72 66 69 69 63 60 63 63 61 57 56 54 52 50 50 49 48 46 45 43 40 38 37 36 35 35 35 35 33 32 33 32 30 29 28 28 29 29 28 31 30 28 32 36 36 36 36 36 34 33 32 30 31 33 28 24 23 20 18 16 15 16 16 16
90 89 87 92 94 91 92 92 91 90 91 90 87 85 82 76 74 77 80 79 78 78 77 79 78 72 70 73 69 62 62 63 62 61 58 56 54 52 51 50 49 48 46 44 42 40 39 37 37 37 37 36 35 35 34 33 32 30 29 29 30 29 28 31 31 29 31 36 38 37 38 37 35 34 32 32 35 34 30 27 25 23 21 20 19 19 18 18
88 89 88 91 93 90 91 92 91 89 90 91 89 86 84 79 74 74 78 80 78 77 77 77 80 78 73 74 74 68 62 59 60 61 59 57 55 53 51 49 49 49 47 46 45 43 41 38 39 39 38 37 37 36 35 34 33 30 29 28 30 31 29 29 31 31 32 36 39 39 40 39 36 35 32 34 37 34 31 29 27 26 24 23 21 20 20 19
86 90 91 92 92 90 90 91 91 90 88 91 91 88 85 82 77 74 74 79 80 78 78 78 79 81 78 77 78 75 66 59 59 60 60 60 58 54 51 50 49 49 48 47 46 46 43 40 40 40 39 38 38 37 36 35 34 31 29 28 29 30 29 29 30 31 32 36 39 40 41 40 39 36 32 35 36 34 33 31 30 28 27 26 24 22 21 21
84 87 91 91 91 91 89 88 90 92 87 86 90 90 86 82 78 77 75 77 81 80 79 78 78 80 79 79 80 76 69 64 62 60 58 60 61 57 52 50 50 49 48 47 47 46 44 43 42 40 40 40 39 39 37 37 35 32 31 30 29 29 29 30 30 31 32 35 39 42 42 42 42 36 32 35 35 33 34 33 31 30 29 28 25 23 22 22
84 85 87 89 90 90 88 83 84 92 89 82 85 89 87 84 80 78 77 78 80 81 79 78 78 78 78 79 78 74 70 67 66 63 59 59 62 60 56 53 52 50 48 47 47 48 46 45 44 42 41 40 39 40 39 38 37 34 33 32 31 30 30 31 31 32 32 34 37 42 44 44 44 36 31 36 35 34 35 33 32 31 31 30 28 25 24 24
83 84 84 87 89 89 88 81 77 87 92 85 81 85 87 85 82 77 75 78 79 80 79 78 77 78 79 79 78 73 69 69 70 69 65 61 63 62 60 58 55 52 50 48 47 49 50 48 46 45 44 42 41 42 41 40 38 36 35 34 34 32 31 32 32 32 33 34 35 40 43 44 44 37 34 38 37 36 36 35 34 33 32 31 29 28 27 26
80 83 83 85 87 88 88 80 75 80 89 89 82 80 84 83 81 76 74 76 77 78 79 78 76 76 79 80 78 74 70 71 72 72 71 67 65 63 62 61 59 55 52 50 50 51 52 50 49 48 47 45 44 43 42 41 40 40 38 36 37 35 32 32 33 33 33 34 35 39 40 42 43 39 40 43 41 40 39 37 36 35 34 32 30 30 29 28
77 81 83 84 85 89 91 82 77 79 80 86 85 78 78 77 71 66 72 77 75 75 77 78 77 76 79 82 80 76 73 73 71 71 72 70 66 65 64 63 61 58 55 53 53 53 54 52 51 50 48 47 45 44 44 42 41 42 41 38 37 36 34 33 34 34 34 35 35 38 39 41 43 42 44 47 44 42 40 38 38 36 35 33 31 31 31 31
74 78 82 84 84 87 94 88 80 80 77 78 83 80 75 72 67 64 74 82 75 70 73 77 80 79 80 85 83 79 77 74 70 71 72 69 67 65 65 63 61 59 58 56 55 55 55 54 53 52 50 48 48 47 45 44 43 43 43 41 37 35 34 33 34 34 34 34 35 36 37 39 43 44 45 47 45 43 41 40 39 37 36 35 33 33 33 32
71 76 79 83 84 85 95 95 83 82 80 76 79 80 75 74 74 74 79 84 77 68 67 71 76 79 82 87 86 81 78 74 70 71 72 70 67 65 65 63 61 60 59 59 58 57 57 56 55 54 53 51 50 48 48 48 45 43 42 40 36 34 33 32 32 33 34 33 33 33 33 36 41 45 47 47 45 45 44 43 42 40 39 38 36 35 34 33
67 73 77 80 84 85 93 99 89 84 81 77 79 77 73 74 76 75 74 76 76 69 64 66 72 79 84 89 87 81 77 72 70 71 71 70 69 67 66 64 60 59 60 60 59 59 58 58 57 56 56 54 52 51 51 47 42 40 38 37 36 34 33 31 30 30 32 32 31 30 29 32 38 44 48 48 46 46 45 46 45 43 42 40 39 36 34 33
62 68 74 78 82 84 89 96 93 90 83 79 84 82 74 73 74 74 68 62 68 72 70 69 72 81 88 87 84 80 74 69 69 70 71 71 70 69 68 66 63 60 61 61 61 60 60 59 60 60 58 56 54 51 47 41 38 39 39 38 37 36 35 32 29 29 31 33 32 30 29 30 34 39 47 49 48 47 46 47 47 45 44 42 40 38 36 34
58 63 70 75 80 82 85 90 92 96 92 83 87 89 81 78 77 76 68 57 60 70 73 71 68 75 84 86 84 81 75 72 73 73 74 74 73 71 70 68 65 62 61 62 61 61 61 62 62 60 58 54 51 46 43 40 39 38 40 40 39 37 36 33 32 32 34 35 34 32 31 31 32 36 44 50 51 50 47 47 47 47 46 44 41 39 38 36
55 58 65 71 77 81 83 86 87 95 101 92 87 92 90 86 82 74 69 60 56 60 68 73 69 68 73 79 82 81 77 78 79 77 77 77 76 74 72 71 68 65 63 62 62 62 63 64 62 60 56 51 48 45 43 44 42 39 40 41 40 39 37 35 35 36 36 37 36 34 33 33 33 33 38 44 48 50 49 48 47 47 46 44 43 41 39 37
53 56 60 66 73 79 80 84 86 90 101 98 91 95 92 86 81 72 69 66 58 59 65 68 69 69 70 72 73 74 74 77 80 79 78 78 77 76 74 73 70 67 64 63 64 65 66 66 64 59 53 48 48 46 45 45 44 42 43 42 41 40 38 36 36 37 37 38 37 36 35 34 34 31 32 36 40 44 49 51 49 47 46 45 43 42 40 37
53 54 56 62 69 76 78 81 84 88 99 99 92 93 88 85 82 73 72 69 61 64 67 65 67 70 73 73 71 71 70 73 77 77 78 77 76 75 75 73 71 70 68 65 66 67 68 66 62 55 50 46 46 46 45 45 45 44 43 43 40 38 37 36 35 36 37 38 37 37 36 35 34 32 30 33 36 38 44 50 51 51 48 46 44 42 41 39
54 54 55 58 64 73 77 79 83 87 95 99 95 89 83 84 86 79 73 66 59 63 66 65 67 72 78 78 72 71 71 72 73 74 76 77 75 74 73 71 70 71 70 67 66 66 66 63 56 50 48 48 47 48 47 46 44 42 41 42 40 37 37 37 36 35 36 37 38 38 39 37 35 33 30 33 37 36 39 44 48 52 51 48 46 43 41 40
56 56 55 56 60 68 74 78 83 86 91 96 95 90 84 83 87 88 78 64 58 61 65 70 72 74 80 80 75 71 70 71 72 73 74 75 75 74 72 71 70 71 71 69 66 66 65 61 54 49 47 47 47 48 48 46 43 41 40 40 38 36 37 38 37 37 37 38 38 38 40 38 34 32 29 30 36 37 38 40 42 49 53 51 48 44 42 40
59 58 57 56 58 63 71 80 83 84 89 93 92 94 91 82 84 92 82 64 60 63 68 76 77 73 75 77 78 73 70 72 71 72 74 73 71 70 69 69 68 68 69 69 67 65 63 58 52 51 49 48 49 50 49 47 44 41 39 37 36 35 36 38 39 38 38 39 38 37 40 40 35 32 29 28 31 35 39 40 39 43 50 53 51 45 42 40
60 61 59 58 58 62 71 80 82 83 90 91 90 97 96 83 82 91 85 70 65 64 68 79 79 73 71 73 75 73 75 77 73 72 73 72 71 68 65 65 67 66 66 67 67 67 65 58 53 53 52 50 52 52 47 42 40 38 35 35 37 37 36 38 39 40 39 39 39 38 40 44 41 36 32 31 30 31 36 40 40 41 45 51 52 48 44 42
61 62 61 60 59 63 70 75 80 86 88 85 88 97 97 85 81 85 82 77 73 66 66 77 79 72 71 74 73 72 76 78 76 74 73 71 71 70 67 66 66 65 65 66 67 66 63 58 53 50 49 49 49 47 43 40 40 38 34 34 37 39 39 40 41 41 41 41 42 41 41 45 46 38 33 33 32 31 33 38 40 41 44 48 52 51 47 45
64 63 63 62 62 66 69 72 79 84 82 81 87 97 98 91 85 82 81 81 78 70 66 72 76 73 73 75 73 72 73 75 75 73 72 71 70 69 69 69 67 63 62 62 63 62 58 53 50 47 48 49 48 46 43 42 45 42 38 37 38 40 42 43 44 43 43 45 45 44 42 44 47 41 35 33 32 31 34 38 41 43 45 47 50 52 51 49
66 64 64 66 68 70 71 73 77 78 79 82 87 97 105 105 99 91 87 85 77 71 69 69 73 75 75 74 73 73 74 75 74 71 70 70 69 67 65 65 63 59 58 59 61 61 56 50 48 50 53 54 52 51 47 47 49 48 43 40 40 42 44 45 46 44 46 49 48 46 43 43 46 43 37 33 30 30 35 39 42 45 46 47 50 52 51 51
63 63 65 70 74 75 75 76 77 76 81 85 88 98 104 105 106 100 92 86 75 67 69 70 71 74 74 73 72 72 74 75 75 73 71 70 70 70 68 66 63 59 56 56 60 64 60 57 57 58 59 58 56 54 51 51 53 51 46 42 42 44 45 46 47 46 48 51 49 46 43 43 45 43 37 33 30 31 36 39 42 45 47 49 50 51 51 50
57 58 63 71 76 78 78 75 75 77 84 88 90 98 96 89 98 103 94 86 78 68 66 70 73 73 72 72 72 73 74 73 73 75 73 69 71 73 73 74 73 70 67 64 67 70 67 64 64 63 61 59 57 54 53 54 54 51 47 45 46 46 47 48 48 48 49 49 47 44 42 43 43 40 38 36 32 32 35 38 41 44 48 50 51 50 50 49
55 56 61 68 75 80 77 70 72 79 86 90 92 98 95 85 92 102 95 86 81 73 64 65 74 76 73 74 76 75 75 72 72 74 73 68 69 72 71 72 73 74 74 71 70 71 68 65 64 64 64 63 61 59 56 54 51 47 44 43 44 44 45 46 45 46 46 45 45 43 43 43 39 36 36 36 34 33 34 36 39 42 47 49 50 49 49 49
57 60 63 65 71 77 75 70 74 81 87 93 95 98 99 92 92 98 97 88 78 73 66 64 74 79 75 75 78 77 77 75 74 74 73 71 72 74 71 69 70 71 71 71 69 68 66 65 65 65 65 63 60 57 52 47 44 41 38 39 41 41 42 42 42 43 42 43 44 44 45 43 37 35 35 35 36 35 32 33 37 40 44 48 49 49 48 48
60 66 67 67 70 74 75 76 79 82 88 94 97 100 102 101 99 100 101 94 80 72 68 62 70 80 78 76 78 79 78 77 76 76 76 76 75 75 73 70 70 71 71 71 71 69 65 62 61 62 61 59 57 54 50 46 45 43 41 42 42 41 42 42 42 42 42 44 44 45 46 43 38 35 36 36 38 37 31 30 34 37 41 45 48 48 47 46
59 66 69 72 75 74 77 82 83 84 90 95 99 103 106 105 106 106 107 101 85 73 67 59 63 73 76 79 82 82 80 76 76 77 77 77 75 74 72 69 68 70 72 72 71 70 67 63 58 55 55 55 53 51 49 47 46 46 45 43 41 42 43 43 42 42 43 46 45 46 46 43 40 38 36 37 39 40 35 30 32 35 39 43 45 46 45 43
58 64 69 75 77 76 80 85 86 87 90 95 101 104 104 103 107 110 110 105 91 77 69 62 60 62 70 81 85 83 80 76 75 78 77 76 75 73 71 69 66 65 65 65 65 64 64 61 57 52 49 48 46 45 44 42 42 43 42 39 38 41 43 42 44 44 45 47 46 46 45 43 41 38 36 36 39 41 37 30 30 33 37 41 41 42 41 41
56 63 70 74 75 77 81 85 88 91 92 96 100 100 99 101 105 107 108 107 98 85 77 70 62 57 61 74 82 79 76 76 75 75 74 74 73 72 71 69 68 66 63 61 59 59 57 56 53 50 48 46 44 44 44 43 42 41 39 38 39 42 42 42 45 45 46 47 46 45 45 44 41 37 36 38 40 40 36 30 29 30 34 39 40 40 40 41
58 64 69 72 74 76 81 86 91 95 97 99 100 96 94 97 102 105 106 107 103 95 89 79 67 59 56 60 69 73 72 74 75 72 71 71 70 69 68 65 65 66 64 62 60 58 56 53 51 49 47 46 46 47 47 44 43 42 41 41 42 42 42 42 44 44 44 46 45 45 47 44 40 38 38 40 41 38 33 29 27 27 31 37 40 41 40 41
61 65 68 71 73 75 81 87 93 99 101 100 98 94 90 91 97 102 101 101 102 100 97 89 75 66 60 56 59 65 67 70 71 69 68 66 64 66 67 64 62 61 62 61 60 59 55 52 51 49 48 48 48 47 45 43 43 41 40 41 41 42 43 43 44 43 43 45 44 46 47 43 38 40 41 41 40 36 32 29 26 26 29 34 39 42 41 41
63 66 68 70 73 76 82 91 97 102 103 98 94 93 90 88 93 97 93 88 92 95 96 93 82 69 63 60 60 62 64 65 66 66 65 63 62 63 61 59 58 58 60 62 61 60 57 54 53 52 50 48 46 44 43 43 43 41 41 40 39 41 42 43 44 42 43 46 46 47 47 40 38 42 42 40 37 34 31 30 28 26 29 33 37 40 40 40
65 68 68 70 75 77 84 94 99 101 103 100 94 91 89 87 89 94 92 86 82 84 90 92 85 72 65 63 62 63 63 63 63 64 61 57 56 56 55 55 56 56 56 56 56 57 57 55 54 53 51 48 47 45 44 44 43 42 42 40 40 42 43 44 44 41 43 47 45 46 46 39 38 43 46 40 34 32 31 31 29 28 30 33 35 37 39 39
65 66 66 68 73 77 84 94 100 102 102 100 94 89 87 86 86 89 93 93 85 79 80 84 82 78 73 68 64 64 64 64 63 64 61 54 50 52 56 57 55 55 55 54 53 53 53 54 55 54 53 52 50 48 46 46 45 45 43 41 43 45 44 45 45 42 45 45 42 44 45 40 40 45 48 41 32 30 30 29 29 29 30 31 33 35 37 37
62 63 65 67 69 76 86 94 100 104 103 99 95 90 87 87 86 86 89 95 95 87 81 77 74 73 73 69 64 59 59 62 62 61 59 53 48 52 57 57 55 55 54 51 49 50 53 56 56 56 56 56 54 52 50 49 48 48 47 46 47 47 46 48 47 45 47 44 42 46 44 41 42 46 50 44 32 29 28 24 27 30 30 31 31 33 36 36
61 62 65 67 68 74 83 89 95 101 101 98 96 90 87 87 87 85 83 89 97 98 94 87 76 70 69 65 59 55 54 57 57 56 55 53 51 52 54 56 57 56 53 51 51 52 56 59 57 57 58 56 53 51 50 51 52 53 52 50 50 50 50 49 48 48 47 43 45 48 42 41 44 47 53 47 31 26 26 23 26 30 32 33 34 35 36 37
64 67 69 73 73 73 79 85 92 97 97 97 95 88 85 85 86 84 81 81 88 95 100 99 89 78 72 67 63 59 58 58 56 54 54 54 53 52 52 55 59 60 58 57 57 56 59 60 57 56 56 51 48 48 46 47 50 51 51 50 51 52 51 50 50 50 47 45 48 47 41 43 45 49 56 47 28 25 26 24 27 31 34 37 37 37 39 39
68 71 73 78 80 77 81 88 93 95 95 95 92 86 84 84 85 88 86 83 81 83 90 97 97 89 81 76 72 66 63 61 57 54 55 55 53 53 54 56 60 62 62 61 60 59 60 60 55 54 52 48 48 48 46 46 47 47 47 47 48 49 50 51 52 49 46 48 50 45 41 46 47 49 55 44 26 26 28 27 30 33 36 39 39 40 41 41
68 71 71 75 78 78 85 92 94 94 95 93 87 83 85 85 84 89 91 88 85 81 80 85 90 88 81 78 79 76 69 62 56 54 53 52 52 54 56 59 61 63 63 64 63 61 60 58 54 52 51 49 50 51 50 49 49 48 48 46 46 47 47 48 48 44 44 48 48 43 41 46 47 47 48 37 25 29 32 31 33 35 38 40 42 42 43 43
64 67 70 72 70 70 80 91 94 94 95 92 85 83 86 86 82 83 87 90 90 86 80 78 82 83 77 72 74 78 71 58 51 50 47 44 45 48 53 57 58 60 63 65 64 61 61 58 55 53 53 52 53 52 51 52 52 53 53 50 49 46 44 45 45 44 46 48 47 44 44 46 46 45 41 33 27 30 34 33 34 36 39 42 43 44 44 45
63 64 64 67 67 68 79 89 93 94 94 90 85 82 85 86 80 76 79 85 90 91 87 83 80 79 76 70 69 74 68 52 43 42 40 38 38 39 43 46 48 53 59 62 63 62 60 57 55 54 55 55 55 53 54 56 56 56 56 53 51 49 48 49 49 48 51 51 47 48 49 47 46 44 39 32 30 32 31 30 30 34 37 39 41 43 45 47
63 61 58 60 64 71 82 90 92 93 90 87 85 83 84 84 80 75 74 75 80 86 88 88 84 79 76 73 73 74 64 48 41 39 37 38 37 35 36 39 43 51 56 58 60 60 59 56 53 54 56 56 56 57 58 58 59 61 61 57 55 53 52 53 52 50 52 51 47 49 52 50 46 45 40 34 31 30 26 26 28 31 32 33 36 40 43 44
60 59 58 60 65 72 84 90 93 92 86 81 82 83 83 81 77 74 74 72 72 74 76 79 80 78 76 76 79 77 63 50 47 46 45 44 43 41 41 40 45 52 55 57 58 57 57 56 53 54 57 56 57 60 61 61 65 65 59 54 54 55 55 55 55 54 53 50 48 49 51 49 46 44 41 36 32 29 27 28 31 31 31 31 34 37 39 40
Wind_Direction
216 216 217 217 216 216 215 215 215 216 216 216 215 214 213 211 210 209 208 208 208 212 215 213 214 217 216 215 216 221 220 215 215 216 215 216 217 219 220 221 221 219 217 216 214 212 211 214 219 221 223 221 227 234 229 223 223 226 232 235 238 238 235 229 218 210 210 211 211 215 213 208 203 199 201 203 203 202 201 203 204 206 210 212 216 221 223 222
216 216 216 217 216 216 216 215 215 216 216 216 216 215 214 212 211 210 209 210 210 210 212 212 213 216 217 216 217 220 220 216 214 215 215 216 217 218 219 220 221 219 219 219 218 216 212 213 218 221 222 222 227 234 228 225 229 228 230 233 235 239 237 231 222 213 210 210 211 216 215 212 209 204 203 206 208 207 206 209 207 205 209 214 221 225 229 231
216 215 216 216 216 216 216 216 216 216 216 216 217 216 216 214 212 211 209 209 211 209 209 210 212 214 216 217 218 220 219 216 216 215 216 217 216 218 219 220 221 220 220 219 219 219 215 213 217 220 222 223 226 233 229 225 228 229 229 230 233 238 239 235 226 216 211 211 212 215 217 215 213 209 207 209 212 214 215 217 214 209 212 219 226 229 231 236
215 215 215 216 216 216 216 216 216 216 217 216 217 217 217 216 214 213 211 208 210 211 209 208 212 213 214 216 218 221 220 217 216 214 217 219 217 217 218 220 221 222 223 221 219 219 217 213 216 220 221 224 225 230 231 227 226 229 230 232 236 238 240 240 232 220 213 212 212 214 217 217 216 213 211 211 213 219 221 220 218 214 218 223 230 235 236 238
214 215 215 215 215 215 216 216 216 216 216 217 216 217 218 218 216 215 214 211 210 212 211 210 213 215 215 216 218 221 222 219 216 213 217 220 217 217 218 220 221 222 225 225 222 220 219 215 215 220 222 223 224 227 232 232 228 230 235 236 239 240 239 241 238 227 216 214 214 213 216 220 219 216 215 214 214 223 225 222 222 220 222 226 230 237 240 241
212 214 214 215 215 214 215 216 216 216 216 217 216 216 217 219 219 217 216 214 212 212 213 212 213 216 217 217 218 221 222 220 217 214 217 219 218 217 217 219 220 222 225 226 224 222 222 219 217 220 223 224 224 226 230 231 230 232 237 238 240 243 241 241 241 234 221 216 216 213 215 221 222 219 218 217 220 227 227 225 226 224 225 230 233 236 240 243
211 211 212 214 215 214 214 216 216 216 216 216 217 216 216 219 220 219 217 217 215 213 213 214 214 215 217 218 217 219 222 220 218 216 217 218 218 218 217 219 221 221 223 225 224 222 223 223 221 220 223 226 226 227 228 229 230 233 238 240 242 244 247 245 244 242 226 217 218 216 215 221 223 222 220 218 223 229 228 226 228 226 225 227 230 235 240 243
212 209 210 214 214 213 214 215 216 216 216 216 216 216 216 217 219 219 219 218 218 216 214 214 215 216 216 218 218 217 219 222 220 218 219 220 219 219 219 219 221 222 222 224 225 223 222 224 225 223 223 226 226 227 229 229 230 233 238 241 241 243 248 248 247 247 232 219 219 218 218 221 222 223 222 222 225 229 229 229 229 229 228 226 228 233 239 242
215 209 208 212 212 212 214 213 215 215 216 216 216 217 216 217 219 219 219 219 219 219 217 216 216 217 218 218 219 218 217 221 223 220 220 222 223 223 222 221 222 223 223 223 226 226 223 223 228 226 224 226 225 226 228 229 229 230 236 239 238 240 244 247 248 248 238 224 221 221 221 221 223 222 222 226 228 228 229 230 231 230 231 230 228 231 238 241
217 212 209 211 211 211 213 213 213 214 215 216 216 216 216 216 219 220 220 219 220 220 219 219 217 218 219 219 221 221 216 218 223 222 220 222 224 225 225 224 223 223 224 224 226 228 224 224 229 228 226 227 227 227 227 230 230 228 231 235 236 238 242 245 247 248 244 233 224 223 224 222 223 222 221 228 230 230 230 231 232 231 232 233 231 231 237 242
218 215 213 212 211 210 212 213 213 213 214 216 216 216 216 216 218 221 220 219 220 221 221 221 221 220 221 222 223 222 219 218 222 225 223 221 222 224 224 224 223 223 224 225 227 229 228 228 230 230 229 229 229 229 229 230 231 228 228 232 234 236 241 244 246 247 248 243 231 225 226 224 224 222 222 228 231 231 233 233 234 235 235 236 235 233 237 242
219 218 215 213 212 209 210 211 213 214 213 213 216 216 216 215 217 221 222 221 221 221 222 222 223 223 223 224 223 221 220 220 222 225 224 221 221 222 224 224 223 224 225 225 228 230 231 230 231 232 233 232 230 231 231 230 231 229 228 230 233 233 237 240 243 245 247 248 239 230 229 227 225 223 225 229 230 232 234 235 236 237 238 238 238 237 237 240
219 219 216 215 212 208 207 207 210 215 213 211 213 215 216 215 216 220 222 223 222 222 222 223 224 225 225 224 223 222 220 220 222 225 224 221 220 221 222 224 225 226 226 226 227 230 232 232 232 232 233 233 232 231 231 231 231 231 229 229 232 233 235 237 240 242 244 246 244 237 234 232 228 224 227 229 229 230 233 235 236 237 239 238 238 238 237 238
218 219 218 216 214 208 204 201 202 210 214 211 211 213 215 215 216 220 223 223 223 223 222 223 224 226 226 225 223 223 222 221 222 224 225 224 222 222 223 225 226 226 227 227 227 230 232 233 233 233 232 233 233 232 232 232 232 232 231 229 231 233 234 238 240 241 243 245 245 242 240 237 231 226 226 228 228 229 231 234 236 238 239 239 238 238 240 239
217 217 218 217 215 210 204 200 198 204 210 211 210 210 213 214 214 220 226 225 223 223 224 223 223 225 227 225 223 223 223 222 223 225 226 226 225 225 225 226 227 227 227 227 228 229 231 233 235 235 234 235 235 234 234 234 234 234 234 233 233 235 236 239 242 243 244 245 245 245 244 240 233 227 227 228 228 230 232 235 237 239 240 239 238 238 241 241
217 216 217 216 216 211 205 201 198 200 204 207 209 209 209 208 207 212 222 224 223 224 225 224 223 224 227 226 222 222 223 222 223 225 227 227 226 226 226 225 226 228 228 227 228 229 231 233 235 236 236 235 235 235 236 236 235 235 236 236 235 238 240 241 245 246 246 246 246 246 247 244 236 230 230 229 229 230 232 235 237 239 240 240 239 237 239 241
217 215 215 215 216 212 207 205 201 199 200 201 206 209 207 205 206 212 220 224 224 225 227 227 225 225 227 226 223 222 224 223 224 226 227 227 227 226 226 226 225 227 228 228 228 229 231 232 234 236 236 236 236 236 236 236 236 237 239 240 241 243 245 246 249 251 250 248 247 247 250 250 240 231 231 231 229 229 230 233 235 236 239 239 239 238 238 240
218 216 215 213 214 213 210 210 205 200 198 196 200 204 205 206 208 215 219 222 225 226 227 226 223 224 225 225 224 223 225 226 226 228 229 228 227 227 227 227 226 226 228 229 228 229 231 232 234 235 236 236 236 235 236 238 239 242 243 243 244 245 245 247 249 251 252 248 246 248 251 256 247 233 232 233 231 230 230 233 235 235 237 238 239 239 238 238
219 217 215 213 213 213 212 212 210 204 200 196 197 200 202 202 206 211 212 216 225 227 225 223 221 225 226 224 225 225 226 227 228 229 230 230 228 228 227 227 226 226 227 228 229 230 231 233 234 236 236 237 237 238 239 241 241 242 243 242 242 244 243 243 243 242 245 246 245 248 249 255 253 238 233 233 232 232 231 233 235 236 236 238 238 238 237 237
220 218 216 214 213 213 212 213 212 208 205 201 198 201 201 200 203 206 202 206 223 229 229 229 230 231 228 226 226 226 226 226 227 228 229 230 229 228 228 228 228 227 226 227 229 230 231 233 235 237 238 240 242 243 242 241 240 240 242 243 243 244 244 242 242 239 241 245 246 248 247 251 253 242 236 236 233 231 231 232 235 236 235 236 237 237 237 236
222 220 217 215 213 213 212 212 212 209 210 208 202 203 203 201 201 202 199 203 217 226 230 231 233 234 231 229 228 227 226 226 226 227 227 228 228 228 228 227 228 228 227 227 228 229 230 232 234 237 239 241 242 243 242 240 239 240 241 242 242 243 243 243 243 242 242 246 247 248 248 249 253 248 243 244 240 233 230 231 234 236 236 236 236 237 237 237
223 221 219 216 214 213 212 211 212 210 211 213 206 204 206 203 200 199 202 208 213 218 226 226 224 227 230 230 229 228 228 228 228 227 227 227 227 228 228 227 228 229 228 228 229 229 230 231 232 235 237 238 240 240 240 240 239 239 239 241 242 243 244 245 247 247 247 248 250 251 251 251 254 253 248 250 249 241 234 232 233 235 236 237 237 237 237 238
223 222 220 218 214 213 212 211 211 210 212 213 208 204 205 205 202 199 204 212 215 216 220 221 218 220 225 226 226 226 228 229 231 231 231 231 231 231 230 229 229 229 229 228 229 230 231 232 233 235 236 236 239 241 242 241 241 241 242 244 246 246 247 248 250 252 252 252 253 255 255 254 256 254 248 250 253 250 243 237 235 235 236 237 238 238 238 239
223 222 221 219 215 213 212 211 210 210 211 213 210 202 199 202 203 201 205 213 218 218 217 220 224 225 226 227 227 226 226 228 230 230 232 233 234 234 234 234 232 232 231 230 230 230 232 234 236 237 238 239 241 243 245 246 245 244 245 246 249 249 249 249 251 253 253 253 253 255 256 256 257 257 252 248 253 254 250 246 241 237 236 236 237 239 239 240
222 222 221 219 216 212 212 212 211 210 210 212 209 200 194 196 199 200 205 213 218 221 219 219 224 226 226 228 229 228 227 228 228 227 229 231 233 234 235 236 236 235 234 233 232 232 232 236 237 236 237 238 240 242 245 247 247 245 244 246 249 250 250 249 250 252 253 254 254 255 258 258 258 261 257 248 252 258 256 254 249 242 239 237 237 239 240 240
221 220 219 219 217 212 211 212 211 209 210 211 207 201 197 194 193 198 206 214 217 220 221 219 218 220 222 225 227 226 225 226 227 226 227 228 230 232 234 236 237 237 237 237 236 234 233 235 238 237 236 237 238 239 242 245 245 245 245 247 250 251 251 249 249 251 252 254 255 256 260 261 257 258 258 249 251 260 260 259 256 248 242 239 238 238 240 241
220 219 218 218 216 212 213 212 210 209 209 209 204 203 203 196 191 198 206 216 218 215 219 220 218 218 218 221 223 223 223 224 223 223 225 227 228 229 230 234 236 236 237 238 238 236 235 235 236 237 237 237 238 240 243 246 248 249 249 250 252 253 252 251 248 248 249 252 254 256 259 262 258 255 256 254 251 257 262 263 260 254 248 242 239 238 239 240
220 218 217 217 215 213 214 212 210 210 209 207 204 204 206 199 192 197 206 218 219 210 212 217 218 218 218 219 220 219 224 227 225 223 223 224 226 226 226 229 232 234 236 238 239 239 240 240 239 240 241 242 243 245 248 250 251 250 247 247 250 251 251 250 247 246 247 248 250 253 256 259 260 257 255 256 255 257 261 262 260 255 251 246 242 239 239 239
220 218 216 215 214 212 213 213 211 209 206 205 203 204 205 201 198 201 209 220 220 212 212 215 215 216 216 216 215 216 220 223 222 224 223 220 219 221 223 227 228 230 233 235 236 238 240 241 240 241 243 245 246 247 248 248 249 248 245 243 245 247 247 246 245 243 243 245 247 248 251 255 258 257 253 254 258 260 257 257 256 252 248 247 244 241 240 240
220 218 214 213 212 211 210 211 210 206 203 204 203 203 206 208 209 210 214 219 219 216 218 218 214 214 214 213 213 214 218 218 216 218 218 218 218 218 219 222 224 226 230 232 232 232 233 235 235 237 240 241 242 242 242 242 244 243 241 239 240 242 243 243 242 240 240 244 246 245 247 251 254 255 253 253 256 257 253 251 252 249 245 245 244 242 241 240
217 214 211 210 210 209 208 208 206 201 200 203 202 203 209 214 216 215 215 216 215 216 222 223 218 215 215 215 215 216 217 217 215 214 212 213 216 217 215 216 219 221 224 229 232 231 230 230 231 234 236 237 238 239 239 241 242 242 241 238 237 239 241 242 242 240 241 246 247 245 246 249 253 257 259 259 256 254 251 250 250 248 244 242 242 242 242 241
212 208 208 210 209 207 208 208 204 200 200 201 201 203 209 213 216 216 214 211 212 214 220 225 222 217 217 218 219 219 218 216 215 215 213 212 215 218 219 221 222 222 221 223 227 229 230 230 231 232 233 235 236 237 239 241 242 242 240 237 235 237 239 241 243 244 246 250 251 250 250 251 256 263 267 266 262 258 256 253 251 249 246 243 242 241 241 242
208 205 205 209 210 208 207 206 204 202 201 200 200 204 209 211 213 215 213 209 210 212 216 222 221 219 220 220 219 217 217 217 217 216 212 210 216 220 220 221 223 225 227 228 229 230 229 229 230 231 233 235 237 238 239 241 243 245 245 243 243 244 246 249 251 253 255 257 256 254 254 255 258 262 265 267 266 262 260 257 253 250 248 246 244 241 240 241
209 207 206 207 210 209 205 201 202 202 202 201 201 203 209 212 214 214 212 209 209 210 214 219 218 218 222 224 221 216 214 216 217 217 213 208 212 218 219 219 221 224 228 230 232 234 235 235 236 237 238 238 240 242 242 243 244 246 247 248 249 251 253 255 255 257 258 259 257 254 253 256 257 257 260 264 266 266 264 260 257 254 251 248 246 244 242 241
209 208 207 206 209 208 203 199 199 200 201 202 202 203 208 212 214 215 214 210 206 207 211 216 216 219 223 223 220 217 215 216 215 216 214 209 211 216 218 220 222 224 227 228 230 233 236 239 240 242 243 243 243 244 244 244 244 244 242 244 249 252 252 252 252 254 254 253 253 253 253 254 254 253 256 260 263 265 263 258 256 254 250 248 247 246 244 243
210 206 206 206 208 207 201 197 196 197 200 202 203 205 207 210 213 215 215 211 205 203 206 210 213 217 220 217 215 215 215 216 218 217 213 209 210 214 218 221 221 224 226 228 230 231 233 235 236 237 240 242 243 243 244 245 246 247 246 250 255 255 252 252 254 254 253 253 253 254 254 254 252 251 254 258 262 264 262 257 253 251 247 246 247 247 247 246
214 206 205 206 208 207 201 195 194 196 198 202 205 206 207 209 211 214 215 211 205 203 202 205 208 211 213 211 210 213 213 212 216 219 214 208 207 211 216 219 220 223 227 230 232 233 235 236 237 237 239 240 242 243 244 245 246 249 252 254 254 251 250 253 255 254 253 255 256 255 255 254 252 252 254 257 260 264 266 263 256 252 248 246 247 247 248 247
212 205 205 206 206 207 202 195 193 195 197 201 205 207 207 209 210 212 214 211 207 205 204 204 206 209 211 211 210 212 212 210 211 215 215 210 208 210 214 217 220 222 225 228 230 233 235 236 236 237 238 239 240 241 241 242 243 246 249 248 247 248 250 252 254 255 256 257 258 258 256 255 254 254 254 255 259 264 269 269 262 256 249 245 245 247 248 246
206 202 204 204 204 206 204 197 193 194 197 200 203 204 206 209 210 211 214 213 210 208 209 207 206 208 211 214 214 213 212 211 211 214 215 212 211 214 216 219 221 222 223 225 227 230 231 231 232 233 234 236 236 238 241 243 245 244 243 243 244 247 249 250 252 255 257 258 259 258 255 254 253 253 253 255 260 266 270 271 265 256 248 243 243 245 247 247
202 201 202 201 200 203 202 198 195 195 198 200 201 202 204 207 209 211 214 215 213 213 212 210 208 209 211 214 217 216 213 213 213 217 220 217 215 215 217 218 220 222 223 224 225 227 226 227 228 228 230 232 234 239 244 246 247 246 246 247 248 250 251 250 251 253 255 256 257 256 254 252 250 250 253 257 263 268 269 266 262 253 246 242 240 242 245 246
199 200 201 199 198 199 199 197 196 197 198 198 200 201 203 205 208 210 211 213 216 217 214 212 210 210 213 216 216 215 214 214 214 217 220 219 217 218 219 220 220 220 221 222 223 226 226 227 229 229 230 232 235 238 240 242 244 246 247 248 251 253 253 253 254 256 256 255 254 254 254 251 248 249 252 256 262 265 263 259 252 244 238 236 237 240 243 244
198 199 200 198 197 197 197 197 197 197 197 197 197 199 202 204 207 210 209 209 213 218 218 215 211 212 217 218 217 218 217 216 216 219 220 220 222 224 223 223 223 222 223 225 227 229 229 228 228 229 229 230 231 233 235 239 241 242 243 245 247 248 250 253 255 255 255 256 256 257 256 249 246 248 249 253 258 259 257 254 245 234 231 232 234 238 242 243
197 198 199 199 199 198 196 197 198 197 197 196 195 197 200 202 205 209 210 209 210 214 218 217 215 217 220 219 218 221 221 218 219 223 225 225 225 224 221 220 222 222 222 224 227 229 229 229 228 228 228 228 228 229 231 234 236 239 244 247 247 248 250 251 251 250 250 252 253 255 253 244 241 246 249 251 255 256 254 250 239 228 226 230 233 236 239 241
195 195 197 199 201 201 198 198 198 196 196 194 193 195 198 200 203 207 211 211 211 212 213 214 214 213 212 213 214 217 218 218 219 222 223 222 218 216 217 219 222 222 222 225 227 228 228 228 228 228 228 227 227 227 230 234 239 244 248 247 246 247 246 246 247 246 246 248 249 250 250 244 240 244 248 248 249 252 250 242 233 226 224 229 232 233 236 236
190 192 196 197 201 202 200 200 199 196 194 194 193 194 196 198 201 205 209 211 213 215 214 213 212 207 205 208 211 214 217 218 219 219 218 216 213 212 215 218 220 222 223 225 227 227 227 229 229 230 232 234 236 240 244 247 248 248 248 247 245 244 243 244 245 245 247 249 249 250 252 249 244 244 246 246 244 246 244 233 227 225 224 229 231 232 234 235
188 190 193 194 197 202 202 200 199 196 194 194 193 193 195 197 198 201 205 209 212 216 217 216 214 213 214 216 215 215 216 216 218 220 220 219 217 215 216 218 220 222 222 223 225 226 228 230 230 232 236 240 245 248 250 250 248 247 248 248 246 245 245 244 243 245 251 251 249 252 256 252 248 245 247 246 242 242 240 228 224 224 224 228 230 232 234 235
190 191 192 190 191 198 200 198 198 197 195 193 193 194 196 198 198 199 202 205 207 212 216 217 218 220 222 222 216 214 215 218 220 221 221 222 222 221 221 220 220 222 223 224 226 228 230 231 231 234 236 238 240 241 241 243 244 245 247 248 249 249 248 247 247 250 253 251 250 254 255 250 247 246 249 250 241 234 235 229 224 223 224 227 230 232 234 234
191 192 193 193 194 198 198 196 197 197 195 194 193 195 197 198 200 201 202 203 205 207 210 212 215 219 221 219 216 215 216 218 219 216 214 217 220 222 223 223 223 224 225 226 227 228 231 232 232 234 236 237 238 239 238 240 241 241 241 242 244 247 249 250 251 251 252 251 250 250 249 245 243 245 249 251 236 224 227 226 221 221 223 227 229 231 232 233
193 193 194 197 200 200 197 194 196 196 195 195 195 195 197 198 199 201 204 205 206 207 208 209 209 210 211 211 213 216 216 214 213 210 206 207 212 218 223 224 225 225 226 228 229 229 231 233 233 233 235 237 239 240 241 240 239 237 237 237 238 240 242 244 246 247 249 251 249 246 244 240 239 242 245 243 228 217 219 221 219 220 224 227 230 232 232 233
195 197 197 198 198 198 195 194 195 195 195 198 198 196 196 197 197 199 203 208 209 209 210 211 211 210 210 210 212 214 214 211 208 203 200 203 210 216 219 221 222 224 225 226 227 229 231 233 234 234 235 237 238 240 241 241 240 238 235 234 233 235 237 241 245 246 247 249 246 242 242 239 237 240 240 233 220 213 216 221 221 222 227 230 233 234 236 237
197 201 203 201 196 195 195 194 194 194 196 199 201 199 197 198 197 197 201 206 210 212 214 215 216 217 220 221 220 216 213 209 206 206 213 221 226 229 227 222 221 223 225 224 224 227 229 231 233 235 237 240 241 241 242 242 242 239 235 234 236 241 245 248 249 248 246 246 242 238 240 239 235 235 233 226 220 219 220 223 224 227 231 235 237 238 239 240
196 200 202 202 198 195 195 195 195 195 195 198 202 201 199 197 197 198 201 203 207 211 215 217 219 221 223 226 225 220 216 216 217 219 227 233 236 239 239 235 231 228 227 227 226 227 229 231 234 236 238 241 243 244 245 244 241 240 240 243 246 250 251 249 247 246 244 243 239 238 240 238 233 232 230 226 224 225 225 227 232 235 236 235 236 238 239 241
Height
5653 5659 5665 5671 5678 5684 5691 5697 5703 5709 5714 5720 5726 5730 5736 5741 5745 5749 5755 5758 5762 5767 5769 5773 5777 5780 5783 5786 5788 5790 5793 5796 5797 5799 5803 5806 5808 5811 5813 5816 5818 5820 5822 5823 5825 5827 5829 5831 5833 5834 5837 5840 5842 5844 5846 5848 5849 5851 5852 5854 5856 5858 5859 5861 5863 5864 5866 5868 5869 5870 5871 5873 5874 5876 5877 5878 5880 5881 5882 5883 5883 5884 5884 5884 5885 5886 5887 5888
5644 5651 5658 5664 5671 5678 5684 5691 5697 5703 5709 5715 5720 5725 5730 5736 5740 5744 5749 5754 5758 5762 5765 5769 5773 5776 5779 5781 5783 5786 5789 5791 5793 5795 5799 5802 5804 5807 5810 5813 5815 5817 5819 5821 5823 5825 5827 5829 5830 5832 5835 5837 5840 5842 5844 5846 5847 5849 5851 5853 5855 5856 5856 5859 5861 5863 5864 5866 5867 5868 5870 5872 5873 5875 5876 5878 5879 5880 5881 5882 5882 5883 5883 5884 5884 5885 5886 5887
5637 5644 5650 5657 5664 5670 5677 5684 5691 5697 5703 5708 5714 5720 5725 5730 5736 5739 5744 5748 5753 5757 5760 5764 5768 5771 5773 5776 5779 5782 5784 5787 5788 5793 5798 5799 5801 5804 5807 5810 5812 5815 5816 5818 5821 5823 5825 5827 5828 5830 5833 5835 5838 5840 5842 5843 5845 5847 5849 5851 5853 5853 5853 5856 5859 5861 5863 5864 5866 5867 5869 5870 5872 5874 5875 5876 5878 5880 5880 5880 5881 5882 5883 5883 5883 5884 5885 5886
5629 5636 5642 5650 5656 5663 5670 5677 5683 5690 5696 5702 5709 5715 5719 5725 5731 5735 5739 5743 5747 5751 5755 5759 5763 5766 5768 5771 5774 5777 5780 5781 5785 5793 5796 5795 5798 5801 5804 5807 5810 5812 5813 5816 5818 5820 5822 5824 5826 5828 5830 5833 5836 5838 5839 5841 5843 5845 5848 5850 5852 5851 5851 5854 5856 5859 5861 5862 5864 5865 5867 5869 5871 5873 5874 5875 5877 5878 5877 5878 5880 5882 5883 5883 5883 5884 5884 5885
5621 5628 5635 5642 5648 5656 5663 5669 5675 5683 5689 5696 5703 5709 5714 5719 5725 5730 5734 5738 5742 5746 5750 5754 5758 5761 5763 5766 5770 5773 5775 5778 5784 5791 5792 5792 5795 5798 5800 5803 5806 5809 5810 5813 5816 5818 5820 5822 5823 5825 5827 5830 5833 5835 5837 5838 5841 5844 5846 5848 5849 5849 5850 5852 5854 5857 5859 5860 5862 5864 5866 5867 5868 5871 5872 5874 5876 5874 5874 5877 5880 5882 5883 5883 5883 5883 5884 5884
5613 5621 5628 5634 5641 5649 5656 5662 5669 5676 5683 5689 5696 5703 5708 5713 5719 5724 5729 5733 5737 5741 5745 5749 5753 5756 5759 5762 5765 5768 5771 5776 5783 5787 5787 5789 5792 5794 5797 5799 5803 5806 5808 5810 5813 5816 5818 5820 5821 5823 5825 5827 5830 5832 5834 5835 5838 5841 5843 5846 5846 5847 5848 5849 5851 5854 5856 5859 5860 5862 5864 5864 5866 5869 5871 5873 5873 5871 5874 5878 5879 5881 5882 5883 5883 5882 5883 5883
5605 5613 5620 5626 5634 5642 5649 5655 5662 5669 5676 5682 5689 5697 5702 5707 5712 5719 5724 5728 5732 5737 5740 5744 5747 5751 5754 5757 5760 5762 5766 5772 5777 5781 5783 5785 5789 5790 5792 5795 5799 5802 5805 5808 5810 5813 5815 5817 5820 5821 5823 5824 5827 5829 5831 5833 5835 5838 5841 5843 5844 5845 5846 5847 5850 5852 5853 5856 5858 5860 5861 5862 5865 5867 5869 5872 5871 5870 5873 5876 5877 5879 5881 5881 5881 5881 5882 5883
5598 5606 5613 5619 5627 5635 5641 5648 5655 5663 5669 5676 5683 5690 5695 5700 5706 5712 5718 5722 5727 5731 5735 5739 5741 5745 5749 5752 5756 5758 5763 5769 5773 5778 5781 5783 5786 5787 5789 5792 5795 5799 5802 5805 5808 5810 5812 5815 5817 5819 5820 5822 5825 5826 5828 5830 5832 5835 5838 5840 5841 5843 5844 5845 5848 5850 5851 5853 5856 5858 5859 5861 5863 5865 5868 5869 5868 5869 5873 5875 5876 5878 5879 5880 5880 5881 5881 5882
5591 5599 5605 5611 5620 5628 5634 5641 5648 5656 5663 5669 5676 5683 5689 5696 5701 5706 5712 5717 5722 5726 5731 5734 5737 5740 5743 5747 5751 5754 5763 5769 5770 5775 5779 5781 5784 5785 5787 5790 5792 5796 5799 5802 5804 5807 5810 5813 5814 5816 5818 5820 5821 5823 5825 5827 5829 5833 5835 5837 5838 5840 5841 5842 5845 5847 5849 5851 5853 5855 5857 5859 5860 5863 5866 5866 5865 5868 5871 5873 5874 5876 5877 5878 5878 5880 5880 5881
5584 5592 5598 5604 5613 5620 5626 5634 5642 5649 5656 5662 5669 5677 5684 5691 5696 5701 5706 5712 5716 5720 5724 5728 5732 5734 5737 5742 5744 5750 5762 5766 5765 5770 5774 5777 5780 5782 5785 5787 5789 5792 5795 5799 5801 5804 5807 5810 5811 5813 5815 5817 5819 5820 5822 5824 5827 5830 5832 5833 5835 5837 5839 5840 5842 5844 5846 5848 5851 5853 5854 5856 5858 5861 5864 5863 5864 5867 5869 5870 5872 5873 5875 5876 5877 5878 5879 5879
5577 5585 5592 5598 5606 5614 5620 5628 5635 5642 5650 5657 5663 5670 5678 5686 5692 5695 5700 5706 5710 5714 5718 5723 5726 5729 5734 5737 5739 5749 5760 5762 5762 5765 5769 5773 5775 5778 5781 5783 5786 5789 5792 5796 5798 5801 5804 5806 5808 5810 5812 5814 5816 5818 5820 5822 5824 5827 5829 5831 5832 5834 5836 5837 5839 5841 5843 5845 5848 5850 5852 5854 5855 5859 5861 5860 5863 5866 5866 5868 5870 5871 5873 5874 5876 5877 5878 5878
5570 5578 5585 5592 5599 5608 5616 5623 5629 5635 5644 5651 5657 5664 5672 5680 5686 5690 5695 5700 5705 5709 5714 5718 5720 5725 5729 5730 5736 5747 5756 5759 5759 5759 5764 5770 5771 5773 5777 5779 5782 5786 5789 5793 5795 5798 5800 5803 5805 5807 5809 5811 5814 5815 5817 5819 5821 5823 5826 5828 5829 5830 5832 5834 5836 5838 5840 5842 5844 5847 5849 5851 5852 5857 5859 5858 5861 5863 5864 5866 5868 5869 5870 5872 5874 5875 5876 5876
5564 5571 5579 5586 5593 5602 5611 5618 5624 5629 5637 5645 5652 5659 5666 5674 5680 5685 5689 5694 5699 5704 5709 5714 5717 5719 5721 5725 5735 5743 5750 5753 5752 5753 5759 5764 5766 5768 5772 5775 5778 5782 5786 5790 5792 5793 5795 5798 5801 5803 5805 5808 5810 5811 5813 5815 5818 5820 5822 5824 5825 5826 5828 5830 5832 5834 5837 5839 5841 5844 5846 5848 5851 5855 5856 5855 5858 5860 5862 5864 5865 5867 5868 5870 5872 5873 5874 5875
5557 5564 5572 5579 5587 5597 5605 5613 5619 5624 5631 5639 5646 5653 5660 5669 5676 5681 5685 5689 5694 5698 5703 5708 5711 5713 5714 5721 5730 5737 5743 5746 5745 5748 5753 5758 5763 5765 5768 5771 5774 5778 5782 5785 5788 5789 5791 5794 5796 5799 5801 5804 5806 5808 5810 5813 5814 5816 5818 5820 5821 5823 5825 5828 5829 5831 5833 5835 5838 5840 5842 5846 5850 5853 5852 5852 5854 5856 5859 5861 5863 5864 5866 5868 5869 5871 5871 5873
5550 5558 5565 5573 5581 5591 5599 5606 5613 5619 5626 5633 5641 5649 5656 5666 5677 5681 5681 5683 5688 5693 5698 5701 5704 5706 5707 5713 5723 5730 5735 5737 5741 5746 5748 5753 5759 5762 5765 5768 5771 5775 5778 5781 5783 5785 5787 5789 5792 5795 5798 5801 5804 5805 5807 5810 5812 5813 5814 5817 5819 5820 5823 5825 5826 5827 5830 5832 5834 5836 5839 5843 5847 5849 5849 5849 5852 5854 5857 5859 5860 5862 5864 5865 5867 5868 5869 5870
5544 5551 5559 5567 5575 5585 5593 5599 5607 5614 5622 5629 5636 5644 5652 5663 5674 5675 5674 5678 5683 5687 5690 5691 5695 5700 5701 5706 5716 5722 5725 5732 5739 5742 5744 5749 5755 5757 5760 5764 5768 5771 5774 5777 5779 5781 5783 5786 5788 5791 5794 5797 5799 5802 5804 5806 5808 5809 5810 5813 5817 5819 5821 5824 5824 5825 5827 5828 5830 5833 5835 5839 5842 5845 5845 5846 5850 5853 5854 5856 5857 5859 5861 5862 5864 5865 5866 5868
5537 5544 5552 5560 5569 5579 5586 5592 5600 5609 5618 5624 5631 5640 5648 5657 5664 5666 5669 5674 5677 5681 5684 5687 5694 5698 5694 5696 5707 5716 5722 5730 5736 5737 5740 5745 5749 5753 5756 5760 5764 5768 5770 5772 5774 5777 5779 5781 5783 5786 5789 5792 5795 5799 5800 5800 5803 5807 5810 5813 5817 5819 5820 5822 5823 5823 5824 5825 5827 5829 5832 5834 5837 5841 5841 5843 5847 5849 5851 5852 5854 5856 5857 5859 5860 5862 5864 5866
5531 5538 5546 5554 5562 5572 5580 5586 5594 5604 5612 5618 5626 5635 5643 5650 5656 5658 5664 5669 5672 5675 5677 5679 5683 5679 5678 5690 5706 5717 5724 5729 5733 5734 5736 5740 5744 5748 5751 5755 5760 5763 5764 5767 5770 5772 5774 5777 5779 5781 5784 5787 5790 5793 5794 5799 5804 5808 5811 5813 5814 5816 5817 5819 5820 5820 5820 5822 5824 5826 5828 5829 5831 5836 5837 5840 5843 5846 5848 5848 5850 5852 5853 5855 5857 5860 5862 5863
5526 5532 5540 5548 5556 5565 5575 5581 5589 5598 5605 5611 5619 5628 5636 5642 5647 5650 5657 5665 5662 5659 5661 5664 5665 5665 5680 5701 5709 5715 5722 5725 5728 5729 5731 5735 5739 5743 5746 5750 5754 5757 5758 5761 5765 5768 5770 5773 5774 5776 5779 5782 5786 5790 5795 5800 5804 5806 5807 5809 5810 5811 5814 5815 5815 5816 5816 5817 5820 5822 5825 5825 5827 5831 5833 5835 5839 5842 5844 5845 5846 5848 5850 5852 5854 5857 5859 5861
5521 5527 5534 5542 5550 5558 5567 5575 5584 5592 5597 5603 5611 5617 5622 5627 5633 5638 5649 5654 5651 5654 5661 5663 5668 5677 5691 5700 5701 5709 5716 5718 5719 5721 5725 5728 5732 5737 5740 5744 5748 5751 5753 5757 5760 5763 5765 5767 5770 5774 5777 5781 5785 5790 5794 5798 5800 5802 5804 5805 5807 5808 5810 5812 5812 5812 5813 5813 5815 5818 5821 5822 5823 5827 5829 5829 5832 5836 5840 5842 5843 5844 5846 5849 5851 5853 5855 5858
5516 5523 5528 5536 5544 5552 5561 5569 5578 5586 5589 5593 5600 5604 5607 5616 5627 5638 5648 5649 5649 5657 5660 5661 5672 5680 5684 5689 5697 5705 5707 5707 5708 5711 5715 5718 5723 5728 5732 5737 5741 5744 5750 5752 5754 5757 5759 5762 5768 5772 5775 5780 5784 5787 5790 5792 5795 5798 5800 5801 5803 5804 5806 5808 5808 5809 5809 5809 5811 5814 5816 5817 5819 5823 5825 5825 5828 5831 5835 5838 5840 5841 5843 5846 5848 5849 5851 5854
5512 5517 5524 5531 5538 5546 5555 5563 5571 5580 5581 5582 5588 5592 5603 5620 5634 5645 5648 5645 5647 5652 5650 5656 5666 5668 5674 5684 5692 5698 5699 5700 5701 5703 5707 5711 5716 5721 5725 5731 5735 5739 5745 5746 5748 5752 5754 5759 5765 5769 5773 5777 5779 5782 5785 5787 5790 5793 5795 5797 5799 5801 5803 5805 5806 5806 5807 5807 5808 5810 5812 5814 5815 5819 5822 5823 5824 5828 5831 5834 5836 5838 5840 5843 5844 5846 5848 5851
5507 5513 5519 5525 5533 5541 5549 5556 5564 5569 5570 5572 5579 5590 5609 5626 5635 5640 5640 5641 5645 5644 5642 5648 5653 5656 5665 5672 5680 5687 5691 5693 5697 5702 5708 5712 5715 5719 5723 5727 5731 5734 5737 5741 5745 5748 5752 5758 5763 5766 5770 5774 5776 5779 5781 5783 5786 5789 5792 5795 5797 5799 5800 5802 5803 5804 5805 5805 5806 5807 5808 5811 5812 5815 5819 5819 5820 5824 5827 5830 5833 5835 5837 5839 5841 5844 5846 5847
5502 5509 5514 5520 5529 5535 5542 5550 5553 5554 5560 5567 5577 5598 5616 5622 5626 5633 5635 5636 5637 5634 5638 5643 5647 5652 5658 5666 5676 5681 5682 5686 5692 5699 5705 5708 5712 5717 5721 5725 5728 5730 5734 5739 5743 5745 5751 5756 5760 5764 5767 5770 5773 5775 5778 5780 5784 5787 5790 5792 5794 5796 5797 5798 5800 5800 5802 5802 5803 5804 5804 5807 5810 5812 5816 5817 5816 5819 5822 5825 5829 5832 5834 5836 5838 5840 5843 5844
5497 5503 5508 5516 5522 5529 5538 5540 5537 5544 5554 5562 5580 5603 5611 5610 5618 5627 5628 5626 5624 5626 5631 5636 5639 5642 5651 5663 5669 5671 5677 5682 5685 5691 5697 5701 5706 5712 5716 5720 5723 5727 5732 5737 5740 5743 5748 5751 5754 5759 5763 5765 5768 5771 5774 5777 5780 5783 5786 5788 5789 5791 5793 5794 5796 5797 5798 5798 5800 5801 5800 5804 5808 5809 5813 5815 5814 5815 5818 5820 5824 5828 5830 5833 5835 5837 5840 5841
5492 5497 5503 5510 5516 5525 5527 5522 5528 5542 5547 5557 5584 5600 5599 5603 5614 5620 5622 5617 5611 5615 5621 5624 5627 5633 5645 5653 5655 5664 5671 5671 5677 5686 5690 5694 5700 5706 5710 5713 5719 5725 5729 5732 5735 5739 5744 5747 5750 5754 5758 5761 5763 5766 5770 5772 5775 5779 5783 5785 5786 5788 5789 5790 5792 5793 5794 5795 5798 5799 5798 5800 5804 5807 5809 5811 5812 5812 5813 5816 5820 5824 5826 5829 5831 5834 5836 5838
5485 5491 5498 5504 5510 5516 5511 5511 5527 5535 5537 5559 5587 5592 5590 5601 5611 5616 5617 5605 5597 5607 5614 5617 5620 5629 5640 5643 5648 5656 5656 5659 5671 5677 5682 5689 5695 5700 5705 5709 5715 5721 5724 5725 5728 5736 5742 5744 5747 5750 5753 5756 5759 5763 5768 5770 5772 5777 5782 5782 5782 5784 5785 5786 5788 5789 5791 5792 5794 5796 5796 5794 5798 5803 5806 5806 5809 5810 5810 5811 5815 5818 5821 5824 5828 5831 5833 5834
5477 5484 5492 5497 5503 5505 5502 5511 5523 5525 5540 5570 5587 5587 5588 5597 5603 5606 5602 5587 5585 5600 5606 5608 5616 5627 5634 5635 5643 5648 5650 5660 5666 5666 5676 5685 5687 5693 5699 5703 5709 5715 5719 5721 5727 5736 5740 5741 5745 5749 5750 5753 5759 5763 5765 5767 5769 5774 5777 5777 5778 5780 5781 5782 5783 5785 5787 5787 5789 5792 5792 5790 5792 5799 5803 5802 5805 5808 5808 5807 5809 5812 5816 5820 5823 5827 5829 5830
5470 5477 5484 5491 5496 5496 5498 5508 5514 5525 5554 5574 5577 5581 5587 5591 5592 5592 5584 5572 5577 5592 5598 5602 5611 5620 5622 5626 5635 5642 5647 5654 5656 5663 5674 5675 5678 5686 5692 5698 5705 5708 5712 5717 5724 5731 5734 5738 5743 5745 5747 5753 5757 5759 5760 5762 5765 5768 5770 5772 5773 5774 5775 5775 5776 5779 5780 5781 5785 5787 5787 5787 5787 5793 5798 5799 5801 5804 5805 5804 5804 5807 5810 5814 5818 5821 5824 5826
5461 5468 5476 5483 5484 5486 5492 5499 5507 5531 5556 5562 5563 5573 5578 5574 5570 5567 5559 5555 5569 5586 5589 5593 5602 5608 5613 5619 5627 5634 5640 5643 5648 5661 5666 5665 5675 5683 5688 5695 5700 5703 5708 5711 5716 5722 5727 5732 5735 5737 5743 5748 5750 5750 5752 5755 5758 5760 5763 5766 5768 5768 5768 5769 5770 5774 5774 5775 5779 5781 5783 5784 5784 5787 5793 5795 5798 5800 5800 5800 5801 5803 5805 5808 5812 5815 5819 5821
5452 5459 5467 5470 5471 5478 5483 5487 5504 5530 5541 5542 5552 5562 5561 5554 5548 5544 5541 5550 5570 5580 5580 5585 5593 5600 5608 5616 5622 5628 5633 5637 5644 5651 5653 5659 5669 5673 5678 5685 5690 5697 5702 5705 5711 5717 5721 5724 5726 5732 5737 5739 5741 5743 5746 5749 5751 5754 5757 5760 5762 5762 5763 5764 5766 5768 5768 5770 5775 5778 5782 5782 5782 5786 5790 5793 5796 5796 5796 5796 5797 5799 5801 5802 5805 5810 5814 5817
5446 5452 5457 5459 5464 5470 5473 5486 5511 5524 5524 5529 5540 5544 5541 5535 5528 5526 5536 5554 5566 5569 5572 5577 5584 5595 5606 5614 5620 5623 5627 5632 5639 5644 5647 5655 5660 5663 5669 5676 5683 5688 5691 5697 5704 5708 5713 5716 5721 5726 5730 5732 5735 5738 5741 5743 5746 5748 5751 5753 5754 5756 5758 5759 5762 5763 5766 5770 5774 5777 5779 5780 5783 5787 5788 5789 5792 5794 5793 5793 5793 5795 5796 5798 5800 5805 5810 5812
5440 5446 5449 5452 5457 5461 5473 5495 5512 5513 5515 5521 5526 5528 5525 5515 5508 5517 5537 5551 5554 5561 5572 5575 5583 5597 5604 5608 5613 5618 5625 5631 5635 5638 5645 5652 5657 5661 5667 5673 5679 5683 5689 5697 5699 5702 5707 5710 5715 5720 5724 5728 5730 5732 5736 5740 5743 5745 5747 5749 5751 5754 5756 5758 5761 5762 5766 5770 5773 5775 5775 5777 5783 5786 5784 5784 5787 5790 5790 5789 5790 5791 5792 5794 5797 5801 5805 5808
5434 5439 5442 5448 5452 5458 5476 5492 5496 5500 5508 5511 5511 5513 5506 5496 5502 5520 5536 5542 5549 5562 5571 5574 5584 5595 5599 5604 5610 5616 5621 5625 5629 5635 5641 5647 5649 5653 5659 5667 5675 5681 5689 5696 5697 5701 5706 5709 5715 5720 5723 5727 5728 5731 5735 5738 5741 5743 5745 5746 5748 5752 5754 5755 5757 5759 5764 5766 5767 5770 5770 5773 5781 5783 5781 5781 5782 5785 5787 5786 5786 5787 5788 5790 5793 5797 5800 5803
5426 5430 5436 5442 5445 5454 5470 5477 5480 5489 5496 5498 5499 5495 5484 5485 5502 5518 5524 5533 5547 5559 5565 5573 5583 5588 5593 5599 5605 5611 5614 5618 5624 5629 5634 5639 5641 5647 5654 5663 5671 5676 5682 5687 5692 5699 5703 5708 5716 5720 5722 5725 5726 5729 5732 5733 5735 5737 5739 5740 5744 5749 5749 5749 5752 5755 5758 5759 5761 5764 5766 5771 5777 5778 5779 5778 5778 5780 5782 5782 5781 5783 5784 5786 5789 5792 5795 5798
5416 5421 5428 5432 5437 5447 5458 5463 5470 5478 5483 5487 5485 5476 5476 5490 5505 5512 5517 5531 5545 5553 5562 5572 5577 5581 5587 5591 5596 5602 5607 5615 5621 5623 5628 5634 5639 5646 5653 5661 5666 5670 5676 5683 5688 5694 5698 5704 5710 5713 5716 5719 5721 5724 5726 5728 5730 5731 5733 5737 5743 5745 5743 5745 5749 5752 5753 5753 5757 5760 5762 5768 5772 5774 5776 5776 5774 5775 5777 5777 5777 5778 5780 5782 5785 5789 5791 5794
5407 5414 5419 5423 5430 5440 5448 5454 5463 5470 5475 5477 5471 5469 5483 5498 5506 5510 5518 5533 5545 5553 5562 5566 5570 5576 5579 5582 5587 5593 5601 5611 5616 5618 5624 5630 5635 5642 5650 5658 5664 5670 5678 5685 5689 5693 5698 5703 5707 5709 5712 5715 5717 5719 5721 5723 5725 5727 5730 5737 5740 5738 5738 5743 5745 5746 5748 5749 5754 5757 5759 5764 5767 5770 5774 5773 5771 5771 5772 5774 5775 5775 5777 5779 5782 5785 5787 5789
5402 5408 5412 5417 5425 5434 5442 5450 5457 5462 5466 5466 5465 5475 5491 5499 5505 5512 5521 5533 5543 5550 5556 5561 5566 5572 5574 5578 5585 5591 5600 5606 5608 5613 5621 5627 5633 5641 5648 5655 5662 5670 5677 5682 5685 5690 5695 5699 5703 5705 5708 5711 5712 5713 5714 5717 5720 5723 5727 5731 5731 5731 5734 5738 5738 5741 5744 5745 5750 5754 5756 5760 5764 5768 5770 5768 5767 5768 5769 5771 5771 5772 5775 5776 5779 5781 5783 5784
5396 5400 5403 5411 5421 5428 5436 5444 5449 5453 5454 5452 5457 5473 5486 5493 5503 5513 5520 5530 5540 5545 5550 5556 5562 5567 5573 5581 5587 5593 5599 5601 5604 5611 5618 5624 5633 5641 5647 5654 5660 5666 5671 5674 5679 5684 5688 5692 5696 5700 5703 5705 5705 5705 5708 5713 5715 5718 5721 5723 5725 5727 5730 5733 5733 5737 5740 5741 5746 5749 5750 5756 5763 5765 5765 5764 5764 5765 5766 5767 5767 5769 5771 5772 5775 5776 5777 5780
5388 5393 5397 5405 5415 5422 5430 5439 5442 5441 5439 5443 5455 5471 5481 5490 5501 5510 5518 5528 5535 5540 5546 5553 5559 5563 5571 5580 5587 5593 5598 5600 5604 5610 5616 5626 5634 5639 5643 5649 5656 5662 5667 5670 5674 5677 5682 5686 5690 5694 5695 5697 5699 5701 5707 5710 5710 5713 5716 5719 5722 5724 5726 5728 5729 5733 5737 5738 5742 5743 5745 5754 5762 5762 5761 5761 5761 5762 5762 5762 5763 5764 5766 5768 5769 5770 5772 5774
5382 5386 5390 5399 5409 5416 5423 5427 5428 5429 5433 5444 5458 5470 5479 5488 5498 5506 5517 5527 5532 5538 5546 5553 5559 5564 5571 5578 5583 5589 5594 5598 5603 5609 5616 5625 5631 5635 5642 5648 5652 5656 5659 5661 5665 5671 5676 5680 5683 5687 5690 5693 5697 5700 5703 5704 5705 5710 5713 5715 5719 5720 5722 5724 5725 5730 5733 5733 5735 5737 5740 5752 5759 5757 5757 5759 5758 5757 5757 5757 5757 5759 5761 5763 5764 5766 5768 5770
5376 5379 5386 5395 5402 5408 5413 5416 5420 5426 5432 5440 5451 5464 5475 5486 5495 5503 5513 5522 5529 5534 5541 5549 5557 5564 5570 5577 5584 5588 5591 5596 5602 5607 5615 5623 5630 5637 5643 5647 5650 5653 5655 5658 5663 5667 5671 5674 5677 5681 5686 5690 5693 5695 5698 5699 5702 5705 5707 5712 5716 5715 5717 5719 5721 5727 5727 5726 5732 5734 5737 5749 5755 5751 5751 5753 5753 5752 5752 5752 5752 5754 5756 5759 5761 5763 5765 5767
5371 5378 5387 5394 5399 5403 5407 5410 5415 5422 5427 5436 5451 5465 5474 5483 5492 5499 5506 5515 5523 5527 5532 5541 5551 5559 5566 5575 5581 5584 5588 5594 5601 5607 5614 5622 5629 5635 5639 5641 5645 5648 5651 5654 5658 5663 5666 5668 5671 5675 5680 5683 5686 5690 5693 5695 5698 5700 5704 5709 5709 5709 5714 5714 5716 5721 5720 5723 5730 5729 5732 5744 5749 5745 5745 5748 5748 5747 5747 5748 5749 5750 5753 5755 5758 5760 5761 5763
5370 5378 5385 5391 5397 5400 5400 5401 5407 5415 5424 5437 5450 5460 5469 5479 5488 5493 5500 5508 5515 5520 5527 5536 5545 5554 5563 5571 5576 5581 5586 5592 5598 5605 5611 5618 5624 5629 5632 5636 5640 5642 5646 5651 5655 5658 5660 5660 5663 5668 5671 5673 5678 5684 5687 5690 5694 5697 5700 5703 5702 5705 5708 5708 5711 5714 5714 5721 5726 5723 5728 5740 5743 5740 5739 5742 5745 5744 5743 5745 5746 5747 5750 5752 5755 5756 5757 5759
5368 5375 5381 5388 5394 5396 5399 5402 5409 5416 5425 5435 5444 5452 5463 5473 5481 5490 5499 5507 5513 5518 5525 5535 5545 5553 5559 5565 5571 5577 5583 5588 5595 5602 5607 5612 5618 5623 5627 5632 5635 5638 5644 5648 5650 5652 5652 5653 5658 5662 5663 5667 5674 5679 5683 5688 5690 5691 5694 5696 5697 5700 5702 5704 5707 5707 5711 5721 5720 5719 5729 5737 5738 5736 5733 5736 5741 5740 5739 5742 5743 5745 5747 5748 5751 5752 5753 5755
5363 5367 5374 5382 5389 5395 5401 5408 5413 5418 5425 5433 5440 5450 5459 5466 5476 5488 5499 5506 5512 5518 5526 5536 5545 5550 5553 5558 5565 5570 5576 5584 5591 5597 5602 5608 5614 5620 5624 5629 5631 5634 5639 5642 5644 5647 5648 5649 5656 5659 5661 5668 5674 5678 5683 5686 5685 5687 5690 5693 5694 5695 5697 5700 5699 5702 5712 5716 5713 5718 5729 5732 5734 5732 5728 5732 5739 5736 5736 5739 5739 5741 5743 5744 5746 5747 5748 5750
5359 5362 5367 5374 5382 5390 5397 5404 5411 5418 5426 5432 5437 5446 5455 5463 5473 5483 5492 5500 5507 5514 5523 5532 5539 5542 5545 5551 5558 5565 5573 5580 5586 5592 5598 5604 5611 5617 5621 5624 5627 5630 5634 5637 5640 5643 5643 5646 5654 5657 5661 5668 5671 5673 5678 5681 5682 5685 5687 5690 5691 5692 5694 5695 5694 5703 5711 5707 5708 5720 5726 5725 5728 5728 5724 5730 5735 5732 5732 5734 5735 5736 5738 5739 5741 5742 5744 5745
5359 5365 5372 5376 5379 5384 5391 5398 5407 5416 5426 5433 5438 5445 5453 5459 5467 5475 5483 5492 5500 5508 5516 5522 5528 5536 5543 5550 5556 5563 5571 5577 5583 5588 5592 5598 5606 5612 5616 5619 5622 5627 5631 5633 5636 5639 5641 5645 5652 5655 5659 5663 5664 5667 5672 5674 5677 5679 5681 5684 5687 5688 5690 5691 5694 5704 5705 5700 5707 5719 5718 5716 5720 5720 5720 5725 5728 5727 5727 5728 5729 5732 5733 5734 5736 5737 5739 5740
5362 5368 5375 5381 5384 5387 5393 5400 5407 5414 5423 5430 5434 5440 5449 5455 5462 5472 5481 5488 5493 5501 5509 5515 5522 5532 5541 5548 5555 5561 5568 5575 5580 5584 5589 5596 5602 5606 5610 5613 5617 5622 5626 5628 5631 5635 5638 5642 5648 5651 5654 5657 5659 5662 5666 5668 5670 5672 5674 5678 5680 5681 5684 5686 5691 5700 5699 5697 5705 5711 5708 5709 5712 5712 5715 5719 5720 5721 5722 5723 5725 5727 5728 5729 5730 5732 5734 5735
5363 5367 5372 5378 5384 5391 5396 5400 5405 5412 5420 5426 5430 5437 5446 5454 5462 5471 5480 5485 5489 5495 5503 5511 5521 5530 5538 5546 5552 5558 5568 5576 5582 5587 5591 5595 5599 5602 5605 5608 5612 5616 5619 5622 5626 5630 5634 5638 5643 5646 5648 5649 5653 5658 5659 5661 5663 5666 5668 5671 5673 5676 5679 5682 5689 5696 5693 5692 5700 5702 5700 5704 5707 5707 5710 5713 5713 5716 5718 5719 5722 5723 5723 5725 5726 5728 5729 5731
5364 5369 5373 5375 5380 5387 5392 5396 5402 5409 5415 5421 5428 5435 5443 5451 5461 5470 5477 5485 5493 5499 5506 5513 5522 5531 5539 5545 5549 5558 5571 5579 5583 5589 5593 5594 5596 5600 5601 5603 5606 5609 5612 5617 5620 5624 5629 5633 5637 5640 5641 5644 5649 5652 5652 5655 5658 5658 5660 5665 5669 5673 5677 5682 5687 5690 5687 5688 5693 5694 5694 5700 5703 5702 5704 5707 5708 5710 5714 5716 5717 5718 5720 5722 5723 5724 5724 5726
5362 5369 5374 5378 5379 5382 5387 5394 5401 5405 5410 5418 5427 5435 5442 5451 5461 5469 5475 5483 5492 5502 5512 5521 5528 5534 5537 5541 5549 5563 5575 5580 5581 5583 5585 5587 5591 5596 5600 5602 5603 5605 5609 5613 5616 5620 5624 5628 5632 5634 5636 5640 5643 5645 5648 5650 5648 5649 5657 5666 5669 5671 5675 5678 5680 5682 5683 5685 5687 5688 5691 5695 5696 5696 5698 5701 5704 5707 5710 5711 5711 5713 5715 5716 5717 5718 5719 5721